Weather History for KPHP - April, 2013

Change the Weather History Date:

Sunday, April 21, 2013

  Actual Average Record
Temperature  
Mean Temperature 43 °F 48 °F  
Max Temperature 54 °F 62 °F 96 °F (1980)
Min Temperature 31 °F 34 °F 18 °F (1959)
Degree Days  
Heating Degree Days 22 17  
Month to date heating degree days 607 428  
Since 1 July heating degree days 6588 6731  
Cooling Degree Days 0 0  
Month to date cooling degree days 0 0  
Year to date cooling degree days 0 0  
Moisture  
Dew Point 35 °F    
Average Humidity 73    
Maximum Humidity 100    
Minimum Humidity 46    
Precipitation  
Precipitation 0.17 in 0.07 in 1.04 in (2005)
Month to date precipitation 1.62 1.08  
Year to date precipitation 2.84 3.13  
Sea Level Pressure  
Sea Level Pressure 30.05 in    
Wind  
Wind Speed 12 mph (NNW)    
Max Wind Speed 26 mph    
Max Gust Speed 32 mph    
Visibility 9 miles    
Events Rain , Snow    
T = Trace of Precipitation, MM = Missing Value Source: NWS Daily Summary

Daily Weather History Graph

Daily Weather History Graph

Search for Another Location

Airport or City:

Trip Planner

Search our weather history database for the weather conditions in past years. The results will help you decide how hot, cold, wet, or windy it might be!

Date:

Astronomy

Apr. 21, 2013 Rise Set
Actual Time 5:52 AM MDT 7:38 PM MDT
Civil Twilight 5:22 AM MDT 8:08 PM MDT
Nautical Twilight 4:44 AM MDT 8:46 PM MDT
Astronomical Twilight 4:04 AM MDT 9:26 PM MDT
Moon 3:17 PM MDT (4/21) 3:25 AM MDT (4/21)
Length of Visible Light 14h 46m
Length of Day
13h 45m
Waxing Gibbous, 80% of the Moon is Illuminated
Apr 21
Waxing Gibbous
Apr 25
Full
May 2
Last Quarter
May 9
New
May 17
First Quarter

Hourly Weather History & Observations

Time (MDT) Temp. Windchill Dew Point Humidity Pressure Visibility Wind Dir Wind Speed Gust Speed Precip Events Conditions
12:55 AM 30.9 °F 23.5 °F 28.9 °F 92% 29.98 in 8.0 mi WNW 8.1 mph - N/A   Mostly Cloudy
1:05 AM 30.2 °F 24.3 °F 30.2 °F 100% 29.94 in 8.0 mi WNW 5.8 mph - N/A   Overcast
1:55 AM 33.1 °F 28.7 °F 32.0 °F 96% 29.95 in 6.0 mi SSW 4.6 mph - 0.04 in Rain Light Rain
2:55 AM 37.9 °F - 37.0 °F 97% 29.91 in 10.0 mi Calm Calm - 0.05 in   Overcast
3:55 AM 41.0 °F 36.4 °F 39.0 °F 93% 29.92 in 10.0 mi SW 6.9 mph - N/A   Overcast
4:55 AM 39.9 °F 36.7 °F 39.0 °F 97% 29.93 in 10.0 mi WSW 4.6 mph - N/A   Clear
5:55 AM 41.0 °F 38.0 °F 39.0 °F 93% 29.96 in 10.0 mi West 4.6 mph - N/A   Overcast
6:55 AM 41.0 °F 35.8 °F 39.0 °F 93% 29.98 in 10.0 mi West 8.1 mph - N/A   Scattered Clouds
7:55 AM 46.0 °F 39.6 °F 39.9 °F 79% 30.01 in 10.0 mi WNW 15.0 mph - N/A   Clear
8:55 AM 48.0 °F - 39.9 °F 74% 30.02 in 10.0 mi NNW 18.4 mph 28.8 mph N/A   Partly Cloudy
9:55 AM 51.1 °F - 39.9 °F 66% 30.04 in 10.0 mi NNW 17.3 mph - N/A   Mostly Cloudy
10:26 AM 51.8 °F - 37.4 °F 58% 30.02 in 10.0 mi NNW 25.3 mph 29.9 mph N/A   Overcast
10:55 AM 51.1 °F - 37.9 °F 61% 30.06 in 10.0 mi NNW 19.6 mph 26.5 mph N/A   Overcast
11:55 AM 51.1 °F - 37.9 °F 61% 30.08 in 10.0 mi North 19.6 mph 28.8 mph N/A   Overcast
12:55 PM 51.1 °F - 36.0 °F 56% 30.09 in 10.0 mi North 15.0 mph 25.3 mph N/A   Overcast
1:55 PM 50.0 °F - 35.1 °F 57% 30.09 in 10.0 mi North 15.0 mph 25.3 mph N/A   Overcast
2:55 PM 51.1 °F - 35.1 °F 54% 30.10 in 10.0 mi North 17.3 mph - N/A   Overcast
3:55 PM 53.1 °F - 34.0 °F 48% 30.09 in 10.0 mi North 15.0 mph - N/A   Overcast
4:55 PM 50.0 °F - 33.1 °F 52% 30.10 in 10.0 mi NNE 11.5 mph - N/A   Overcast
5:55 PM 48.9 °F - 32.0 °F 52% 30.12 in 10.0 mi North 10.4 mph - N/A   Overcast
6:55 PM 46.0 °F 40.6 °F 30.9 °F 56% 30.13 in 10.0 mi North 11.5 mph - N/A   Scattered Clouds
7:55 PM 44.1 °F 40.1 °F 32.0 °F 63% 30.13 in 10.0 mi NE 6.9 mph - N/A   Overcast
8:55 PM 41.0 °F 33.9 °F 30.9 °F 67% 30.14 in 10.0 mi East 12.7 mph - N/A   Mostly Cloudy
9:55 PM 39.0 °F 29.9 °F 28.9 °F 67% 30.16 in 10.0 mi ENE 17.3 mph - N/A   Overcast
10:55 PM 37.0 °F 27.0 °F 28.0 °F 70% 30.16 in 10.0 mi East 18.4 mph - N/A   Overcast
11:55 PM 35.1 °F 27.4 °F 28.9 °F 78% 30.19 in 2.5 mi ENE 10.4 mph - 0.00 in Snow Light Snow